Tillbaka till svenska Fidonet
English   Information   Debug  
FILM   0/18
FNEWS_PUBLISH   4881
FN_SYSOP   42085
FN_SYSOP_OLD1   71952
FTP_FIDO   0/2
FTSC_PUBLIC   0/13950
FUNNY   0/4886
GENEALOGY.EUR   0/71
GET_INFO   105
GOLDED   0/408
HAM   14945/16617
HOLYSMOKE   0/6791
HOT_SITES   0/1
HTMLEDIT   0/71
HUB203   466
HUB_100   264
HUB_400   39
HUMOR   0/29
IC   0/2851
INTERNET   0/424
INTERUSER   0/3
IP_CONNECT   719
JAMNNTPD   0/233
JAMTLAND   0/47
KATTY_KORNER   0/41
LAN   0/16
LINUX-USER   0/19
LINUXHELP   0/1155
LINUX   0/22287
LINUX_BBS   0/957
mail   18.68
mail_fore_ok   249
MENSA   0/341
MODERATOR   0/102
MONTE   0/992
MOSCOW_OKLAHOMA   0/1245
MUFFIN   0/783
MUSIC   0/321
N203_STAT   938
N203_SYSCHAT   313
NET203   321
NET204   69
NET_DEV   0/10
NORD.ADMIN   0/101
NORD.CHAT   0/2572
NORD.FIDONET   189
NORD.HARDWARE   0/28
NORD.KULTUR   0/114
NORD.PROG   0/32
NORD.SOFTWARE   0/88
NORD.TEKNIK   0/58
NORD   0/453
OCCULT_CHAT   0/93
OS2BBS   0/787
OS2DOSBBS   0/580
OS2HW   0/42
OS2INET   0/37
OS2LAN   0/134
OS2PROG   0/36
OS2REXX   0/113
OS2USER-L   207
OS2   0/4829
OSDEBATE   0/18996
PASCAL   0/490
PERL   0/457
PHP   0/45
POINTS   0/405
POLITICS   0/29554
POL_INC   0/14731
PSION   103
R20_ADMIN   1133
R20_AMATORRADIO   0/2
R20_BEST_OF_FIDONET   16
R20_CHAT   0/896
R20_DEPP   0/3
R20_DEV   400
R20_ECHO2   1789
R20_ECHOPRES   0/35
R20_ESTAT   0/719
R20_FIDONETPROG...
...RAM.MYPOINT
  0/2
R20_FIDONETPROGRAM   0/22
R20_FIDONET   0/248
R20_FILEFIND   0/24
R20_FILEFOUND   0/22
R20_HIFI   0/3
R20_INFO2   3681
R20_INTERNET   0/12940
R20_INTRESSE   0/60
R20_INTR_KOM   0/99
R20_KANDIDAT.CHAT   42
R20_KANDIDAT   28
R20_KOM_DEV   112
R20_KONTROLL   0/13360
R20_KORSET   0/18
R20_LOKALTRAFIK   0/24
R20_MODERATOR   0/1852
R20_NC   76
R20_NET200   245
R20_NETWORK.OTH...
...ERNETS
  0/13
R20_OPERATIVSYS...
...TEM.LINUX
  0/44
R20_PROGRAMVAROR   0/1
R20_REC2NEC   534
R20_SFOSM   0/341
R20_SF   0/108
R20_SPRAK.ENGLISH   0/1
R20_SQUISH   107
R20_TEST   2
R20_WORST_OF_FIDONET   20
RAR   0/9
RA_MULTI   106
RA_UTIL   0/162
REGCON.EUR   0/2067
REGCON   0/13
SCIENCE   0/1206
SF   0/239
SHAREWARE_SUPPORT   0/5146
SHAREWRE   0/14
SIMPSONS   0/169
STATS_OLD1   0/2539.065
STATS_OLD2   0/2530
STATS_OLD3   0/2395.095
STATS_OLD4   0/1692.25
SURVIVOR   0/495
SYSOPS_CORNER   0/3
SYSOP   0/84
TAGLINES   0/112
TEAMOS2   0/4530
TECH   0/2617
TEST.444   0/105
TRAPDOOR   0/19
TREK   0/755
TUB   0/290
UFO   0/40
UNIX   0/1316
USA_EURLINK   0/102
USR_MODEMS   0/1
VATICAN   0/2740
VIETNAM_VETS   0/14
VIRUS   0/378
VIRUS_INFO   0/201
VISUAL_BASIC   0/473
WHITEHOUSE   0/5187
WIN2000   0/101
WIN32   0/30
WIN95   0/4291
WIN95_OLD1   0/70272
WINDOWS   0/1517
WWB_SYSOP   0/419
WWB_TECH   0/810
ZCC-PUBLIC   0/1
ZEC   4

 
4DOS   0/134
ABORTION   0/7
ALASKA_CHAT   0/506
ALLFIX_FILE   0/1313
ALLFIX_FILE_OLD1   0/7997
ALT_DOS   0/152
AMATEUR_RADIO   0/1039
AMIGASALE   0/14
AMIGA   0/331
AMIGA_INT   0/1
AMIGA_PROG   0/20
AMIGA_SYSOP   0/26
ANIME   0/15
ARGUS   0/924
ASCII_ART   0/340
ASIAN_LINK   0/651
ASTRONOMY   0/417
AUDIO   0/92
AUTOMOBILE_RACING   0/105
BABYLON5   0/17862
BAG   135
BATPOWER   0/361
BBBS.ENGLISH   0/382
BBSLAW   0/109
BBS_ADS   0/5290
BBS_INTERNET   0/507
BIBLE   0/3563
BINKD   0/1119
BINKLEY   0/215
BLUEWAVE   0/2173
CABLE_MODEMS   0/25
CBM   0/46
CDRECORD   0/66
CDROM   0/20
CLASSIC_COMPUTER   0/378
COMICS   0/15
CONSPRCY   0/899
COOKING   41026
COOKING_OLD1   0/24719
COOKING_OLD2   0/40862
COOKING_OLD3   0/37489
COOKING_OLD4   0/35496
COOKING_OLD5   9370
C_ECHO   0/189
C_PLUSPLUS   0/31
DIRTY_DOZEN   0/201
DOORGAMES   0/2253
DOS_INTERNET   0/196
duplikat   6102
ECHOLIST   0/18295
EC_SUPPORT   0/318
ELECTRONICS   0/359
ELEKTRONIK.GER   1534
ENET.LINGUISTIC   0/13
ENET.POLITICS   0/4
ENET.SOFT   0/11701
ENET.SYSOP   34255
ENET.TALKS   0/32
ENGLISH_TUTOR   0/2000
EVOLUTION   0/1335
FDECHO   0/217
FDN_ANNOUNCE   0/7068
FIDONEWS   24978
FIDONEWS_OLD1   0/49742
FIDONEWS_OLD2   0/35949
FIDONEWS_OLD3   0/30874
FIDONEWS_OLD4   0/37224
FIDO_SYSOP   12920
FIDO_UTIL   0/180
FILEFIND   0/209
FILEGATE   0/212
Möte HAM, 16617 texter
 lista första sista föregående nästa
Text 542, 777 rader
Skriven 2005-08-26 18:29:16 av Amsat List (1:323/120.0)
Ärende: 
========
SB KEPS @ AMSAT  $ORB05237.O
Orbital Elements  05237.OSCAR

HR AMSAT ORBITAL ELEMENTS FOR OSCAR SATELLITES
FROM WA5QGD FORT WORTH,TX August 25, 2005
Send SUBSCRIBE KEPS/UNSUBSCRIBE KEPS to majordomo@amsat.org only
BID: ORB05237.O
TO ALL RADIO AMATEURS BT

Satellite: AO-07
Catalog number: 07530
Epoch time:      05236.70571835
Element set:    0470
Inclination:      101.6204 deg
RA of node:       281.4862 deg
Eccentricity:    0.0012205
Arg of perigee:   102.1116 deg
Mean anomaly:     258.1325 deg
Mean motion:   12.53570724 rev/day
Decay rate:       -2.8e-07 rev/day^2
Epoch rev:           40823
Checksum:              253

Satellite: AO-10
Catalog number: 14129
Epoch time:      05236.09778317
Element set:    0209
Inclination:      027.4361 deg
RA of node:       016.6171 deg
Eccentricity:    0.6029582
Arg of perigee:   215.6441 deg
Mean anomaly:     082.9684 deg
Mean motion:   02.05866386 rev/day
Decay rate:       1.15e-06 rev/day^2
Epoch rev:           16693
Checksum:              310

Satellite: UO-11
Catalog number: 14781
Epoch time:      05236.86528767
Element set:     861
Inclination:      098.2041 deg
RA of node:       235.8327 deg
Eccentricity:    0.0010083
Arg of perigee:   134.2186 deg
Mean anomaly:     225.9849 deg
Mean motion:   14.79290903 rev/day
Decay rate:       1.44e-06 rev/day^2
Epoch rev:           15195
Checksum:              317

Satellite: RS-10/11
Catalog number: 18129
Epoch time:      05236.97459479
Element set:    0779
Inclination:      082.9261 deg
RA of node:       187.2546 deg
Eccentricity:    0.0010826
Arg of perigee:   188.5927 deg
Mean anomaly:     171.5044 deg
Mean motion:   13.72762880 rev/day
Decay rate:        1.9e-07 rev/day^2
Epoch rev:           91051
Checksum:              338

Satellite: FO-20
Catalog number: 20480
Epoch time:      05236.91453585
Element set:    0992
Inclination:      099.0308 deg
RA of node:       038.0820 deg
Eccentricity:    0.0540775
Arg of perigee:   083.8183 deg
Mean anomaly:     282.4217 deg
Mean motion:   12.83347580 rev/day
Decay rate:       -6.4e-07 rev/day^2
Epoch rev:           72831
Checksum:              311

Satellite: RS-12/13
Catalog number: 21089
Epoch time:      05237.47224293
Element set:     998
Inclination:      082.9170 deg
RA of node:       219.4587 deg
Eccentricity:    0.0027752
Arg of perigee:   245.4648 deg
Mean anomaly:     114.3649 deg
Mean motion:   13.74453688 rev/day
Decay rate:        8.7e-07 rev/day^2
Epoch rev:           73001
Checksum:              336

Satellite: RS-15
Catalog number: 23439
Epoch time:      05237.76134193
Element set:     885
Inclination:      064.8225 deg
RA of node:       355.0294 deg
Eccentricity:    0.0165335
Arg of perigee:   304.1200 deg
Mean anomaly:     054.4133 deg
Mean motion:   11.27550700 rev/day
Decay rate:       -3.9e-07 rev/day^2
Epoch rev:           43923
Checksum:              280

Satellite: FO-29
Catalog number: 24278
Epoch time:      05235.13734054
Element set:    0050
Inclination:      098.5387 deg
RA of node:       275.6415 deg
Eccentricity:    0.0351160
Arg of perigee:   002.9005 deg
Mean anomaly:     357.4064 deg
Mean motion:   13.52913780 rev/day
Decay rate:       -3.6e-07 rev/day^2
Epoch rev:           44524
Checksum:              291

Satellite: SO-33
Catalog number: 25509
Epoch time:      05237.74394252
Element set:     448
Inclination:      031.4322 deg
RA of node:       359.4206 deg
Eccentricity:    0.0355515
Arg of perigee:   053.9512 deg
Mean anomaly:     309.3512 deg
Mean motion:   14.28026955 rev/day
Decay rate:        7.6e-07 rev/day^2
Epoch rev:           35677
Checksum:              306

Satellite: AO-40
Catalog number: 26609
Epoch time:      05237.39980646
Element set:     594
Inclination:      007.6170 deg
RA of node:       284.4497 deg
Eccentricity:    0.7927485
Arg of perigee:   074.7281 deg
Mean anomaly:     352.7452 deg
Mean motion:   01.25583399 rev/day
Decay rate:      -3.23e-06 rev/day^2
Epoch rev:            2213
Checksum:              337

Satellite: VO-52
Catalog number: 28650
Epoch time:      05237.74110707
Element set:     109
Inclination:      097.9043 deg
RA of node:       310.5188 deg
Eccentricity:    0.0026381
Arg of perigee:   241.3143 deg
Mean anomaly:     118.5433 deg
Mean motion:   14.80909189 rev/day
Decay rate:       3.04e-06 rev/day^2
Epoch rev:            1665
Checksum:              287

/EX
SB KEPS @ AMSAT  $ORB05237.D
Orbital Elements  05237.MICROS

HR AMSAT ORBITAL ELEMENTS FOR THE MICROSATS
FROM WA5QGD FORT WORTH,TX August 25, 2005
Send SUBSCRIBE KEPS/UNSUBSCRIBE KEPS to majordomo@amsat.org only
BID: ORB05237.D
TO ALL RADIO AMATEURS BT

Satellite: UO-14
Catalog number: 20437
Epoch time:      05236.55674212
Element set:     855
Inclination:      098.1962 deg
RA of node:       242.4514 deg
Eccentricity:    0.0011399
Arg of perigee:   355.2935 deg
Mean anomaly:     004.8143 deg
Mean motion:   14.31422990 rev/day
Decay rate:        1.0e-07 rev/day^2
Epoch rev:           81381
Checksum:              287

Satellite: AO-16
Catalog number: 20439
Epoch time:      05236.82823416
Element set:    0543
Inclination:      098.2045 deg
RA of node:       258.2453 deg
Eccentricity:    0.0011485
Arg of perigee:   002.8225 deg
Mean anomaly:     357.3041 deg
Mean motion:   14.31688236 rev/day
Decay rate:        4.4e-07 rev/day^2
Epoch rev:           81391
Checksum:              288

Satellite: WO-18
Catalog number: 20441
Epoch time:      05236.68963947
Element set:     740
Inclination:      098.2120 deg
RA of node:       262.5722 deg
Eccentricity:    0.0011917
Arg of perigee:   004.0144 deg
Mean anomaly:     356.1140 deg
Mean motion:   14.31760001 rev/day
Decay rate:        1.0e-08 rev/day^2
Epoch rev:           81395
Checksum:              261

